Regional Weather Roundup
Issued by NWS

Home | Current Version | Previous Version | Graphics & Text | Print | Product List | Glossary On
Versions: 1 2 3 4 5 6 7 8 9 10 11 12 13 14 15 16 17 18 19 20 21 22 23 24 25 26 27 28
000
ASUS45 KBOU 170306
RWRCO

WEATHER ROUNDUP FOR COLORADO
NATIONAL WEATHER SERVICE DENVER/BOULDER CO
900 PM MDT WED APR 16 2014

NOTE: "FAIR" INDICATES FEW OR NO CLOUDS BELOW 12000 FEET WITH NO
SIGNIFICANT WEATHER AND/OR OBSTRUCTIONS TO VISIBILITY.

COZ001>005-013-030-031-170400-
...NORTHWEST COLORADO...

CITY           SKY/WX    TMP DP  RH WIND       PRES   REMARKS
CRAIG          PTCLDY    37  19  48 CALM      29.99R
HAYDEN         PTCLDY    37  16  41 SW5       30.01R
MEEKER         CLEAR     42  18  37 SE6       29.99R
MOUNT WERNER   NOT AVBL
STEAMBOAT SPGS CLEAR     38  10  30 CALM      30.00R
WALDEN         MOCLDY    34   9  35 CALM      30.02R
$$

COZ006>008-011-170400-
...WEST CENTRAL VALLEYS...

CITY           SKY/WX    TMP DP  RH WIND       PRES   REMARKS
GRAND JUNCTION CLEAR     48  21  34 VRB3      29.92R
MONTROSE       PTCLDY    47  26  44 S6        29.99R
EAGLE          MOCLDY    46  10  23 CALM      30.01R
RIFLE          CLEAR     47  16  29 W8        29.95R
DELTA          PTCLDY    54  14  20 NW6       29.95R
NUCLA            N/A     46  23  39 CALM      30.02R
$$

COZ017>023-064>068-170400-
...SOUTHWEST COLORADO...

CITY           SKY/WX    TMP DP  RH WIND       PRES   REMARKS
DURANGO        MOCLDY    48  22  35 W13       29.95R
CORTEZ         CLEAR     44  23  43 CALM      29.97R
PAGOSA SPRINGS CLOUDY    48  18  30 SW6       29.97R
TELLURIDE      MOCLDY    34  27  75 CALM      30.06R
WOLF CREEK PAS SNOW      23  23 100 SW7       30.08R VSB 1/2 WCI  15
$$

COZ009-010-012-014-032>034-037-058>063-170400-
...CENTRAL COLORADO...

CITY           SKY/WX    TMP DP  RH WIND       PRES   REMARKS
ASPEN          MOCLDY    39  25  57 S7        30.01R
BUENA VISTA    LGT SNOW  33  32  96 SE6       30.06R WCI  27
COPPER MTN     MOCLDY    27  10  50 W6G17     30.09R WCI  20
BERTHOUD PASS  FAIR      14   5  67 W5        30.11R WCI   6
COTTONWOOD PAS SNOW      32  32 100 E5        30.07R VSB 1/4 WCI  27
GUNNISON       CLOUDY    43  18  36 N7        30.04R
KREMMLING      MOCLDY    37   9  30 CALM      30.03R
LEADVILLE      CLOUDY    29  18  63 NW5       30.05R WCI  24
MONARCH PASS   MIX PCPN  23  21  93 NE18G25   30.18R VSB 1/4 WCI   9
SALIDA         CLOUDY    34  33  95 E7        30.13R WCI  28
SUNLIGHT       PTCLDY    30  10  43 W3        30.10R
WILKERSON PASS SNOW      21  19  93 E10       30.11R VSB 1/2 WCI  10
$$

COZ069>075-170400-
...SAN LUIS VALLEY/SANGRE DE CRISTO MOUNTAINS...

CITY           SKY/WX    TMP DP  RH WIND       PRES   REMARKS
ALAMOSA        LGT RAIN  38  35  89 E10       30.00R
LA VETA PASS   SNOW      23  23 100 MISG      30.06R VSB 1/2
SAGUACHE       CLOUDY    36  32  87 SE12      30.01R
$$

COZ035-036-038>040-170400-
...NORTHERN COLORADO FRONT RANGE...

CITY           SKY/WX    TMP DP  RH WIND       PRES   REMARKS
DENVER INTL AP CLOUDY    45  22  40 E8        30.07R
DMNS CITY PARK   N/A     46  21  37 NE5       30.07R
AURORA         CLOUDY    45  23  42 NE9       30.09R
FRONT RANGE AP NOT AVBL
ERIE MUNI ARPT CLOUDY    47  24  40 CALM      30.07R
BOULDER MUN AP CLOUDY    45  30  57 CALM      30.07R
CENTENNIAL     CLOUDY    40  30  67 S9        30.08R
BROOMFIELD     CLOUDY    45  27  49 VRB5      30.08R
FORT COLLINS   CLOUDY    43  27  52 NE5       30.08R
LONGMONT       CLOUDY    47  27  44 CALM      30.09R
$$

COZ041-046-047-076>085-087-088-170400-
...PIKES PEAK/PALMER DIVIDE AND SOUTHERN FOOTHILLS...

CITY           SKY/WX    TMP DP  RH WIND       PRES   REMARKS
COLO. SPRINGS  LGT SNOW  34  32  92 NW3       30.12R FOG
A. F. ACADEMY  LGT SNOW  32  32 100 CALM      30.11R FOG
ELLICOTT       NOT AVBL
FALCON         LGT SNOW  32  32 100 N3        30.11R
FORT CARSON    FLURRIES  33  33  99 NW9       30.10R WCI  25
LIMON          CLOUDY    40  29  64 E9        30.08R
MONUMENT HILL  CLOUDY    32  30  93 S9        30.09R WCI  24
TRINIDAD       LGT RAIN  39  36  89 N8        30.08R
$$

COZ042>045-048>051-090-091-170400-
...NORTHEAST COLORADO...

CITY           SKY/WX    TMP DP  RH WIND       PRES   REMARKS
GREELEY ARPT   CLOUDY    46  25  42 NE13      30.07R
AKRON          CLOUDY    37  31  78 SE8       30.08R
BURLINGTON     CLOUDY    42  30  62 NE9       30.08R
WRAY           MOCLDY    42  34  72 NE8       30.10R
STERLING       CLOUDY    45  32  61 E6        30.08R
HOLYOKE        MOCLDY    37  32  81 E7        30.10R
FORT MORGAN    CLOUDY    44  29  55 E9        30.08R
$$

COZ086-089-092>099-170400-
...SOUTHEAST COLORADO...

CITY           SKY/WX    TMP DP  RH WIND       PRES   REMARKS
PUEBLO         LGT RAIN  43  37  79 VRB5      30.10R
LA JUNTA       CLOUDY    50  26  39 N12       30.06R
LAMAR          CLOUDY    51  27  39 NE9       30.04R
SPRINGFIELD      N/A     47  26  44 NE16      30.03R
$$



USA.gov is the U.S. government's official web portal to all federal, state and local government web resources and services.